Regional Weather Roundup
Issued by NWS Sterling, VA

Home | Current Version | Previous Version | Graphics & Text | Print | Product List | Glossary On
Versions: 1 2 3 4 5 6 7 8 9 10 11 12 13 14 15 16 17 18 19 20 21 22 23 24 25 26 27 28 29 30 31 32 33 34 35 36 37 38 39 40 41 42 43 44 45 46 47 48 49 50
041
ASUS41 KLWX 230010
RWRLWX

REGIONAL WEATHER ROUNDUP
NATIONAL WEATHER SERVICE BALTIMORE MD/WASHINGTON DC
800 PM EDT WED MAR 22 2017

Note: "FAIR" indicates few or no clouds below 12,000 feet
with no significant weather and/or obstructions to visibility.
 TC=TEMPERATURE CELSIUS

 * =Non NWS site. Station does not report precipitation (e.g. rain,
    snow, etc.), thunder, or fog.

DCZ001-MDZ009-015-VAZ040>042-051-053>054-230100-
WASHINGTON METRO

CITY           SKY/WX    TMP DP  RH WIND       PRES   REMARKS
WASHINGTON NAT CLEAR     43   5  20 N16       30.39R
DULLES         CLEAR     41   3  20 N9        30.38R
ANDREWS AFB    CLEAR     38   7  27 N10       30.36R
FT BELVOIR     CLEAR     43   5  20 N6        30.38R
QUANTICO       CLEAR     43   8  23 NE12      30.39R
COLLEGE PARK*  CLEAR     39   3  22 N12       30.39R
LEESBURG*      CLEAR     41  12  30 N13G21    30.39R
MANASSAS*      CLEAR     40   7  25 N10       30.39R
GAITHERSBURG*  CLEAR     37   3  23 N3        30.42R

$$

MDZ006>007-011-014-230100-
BALTIMORE METRO

CITY           SKY/WX    TMP DP  RH WIND       PRES   REMARKS
BWI AIRPORT    PTCLDY    40   1  19 N8        30.38R
MD SCIENCE CTR   N/A     43   1  17 MISG      30.37R
MARTIN STATE   CLEAR     39   7  26 NW12      30.40R
ANNAPOLIS      CLEAR     44  13  28 N14       30.37R
FORT MEADE*    CLEAR     37   7  28 NW7       30.40R

$$

MDZ012-015-019>023-230100-
MARYLAND EASTERN SHORE

CITY           SKY/WX    TMP DP  RH WIND       PRES   REMARKS
OCEAN CITY     CLEAR     38  12  34 N15       30.36R
SALISBURY      CLEAR     38   8  29 N8        30.35R
BAY BRIDGE AP* CLEAR     41  10  28 N16G22    30.38R
CAMBRIDGE*     CLEAR     41   7  24 N10       30.36R
EASTON*        CLEAR     39   7  26 N7        30.40R

$$

MDZ017>025-230100-
SOUTHERN MARYLAND

CITY           SKY/WX    TMP DP  RH WIND       PRES   REMARKS
PATUXENT RIVER CLEAR     42  11  28 N15       30.35R
ST INIGOES     CLEAR     44   7  21 N6        30.35R
LEONARDTOWN*   CLEAR     41   5  22 NW3       30.38R

$$

MDZ003>005-230100-
NORTH CENTRAL MARYLAND

CITY           SKY/WX    TMP DP  RH WIND       PRES   REMARKS
FREDERICK*     CLEAR     39  10  30 N6        30.42R
HAGERSTOWN APT CLEAR     37   5  26 NW7       30.39R
WESTMINSTER*   CLEAR     36   7  30 NE7       30.37R

$$

MDZ501>502-230100-
WESTERN MARYLAND

CITY           SKY/WX    TMP DP  RH WIND       PRES   REMARKS
OAKLAND*       CLEAR     27   3  36 NW7       30.34R
CUMBERLAND*    CLEAR     37   5  25 N12       30.45R

$$

VAZ025>031-230100-
SHENANDOAH VALLEY

CITY           SKY/WX    TMP DP  RH WIND       PRES   REMARKS
WINCHESTER*    CLEAR     37   7  28 NW12G20   30.39R
FRONT ROYAL*   CLEAR     39   7  26 N7        30.38R
LURAY*         CLEAR     41  12  30 NW6       30.37R
NEW MARKET*    CLEAR     40   3  22 CALM      30.38R
STAUNTON*      CLEAR     39  11  31 N6        30.37R
WAYNESBORO*    CLEAR     39  13  34 N5        30.34R

$$

WVZ021-048>050-054>055-230100-
EASTERN WEST VIRGINIA PANHANDLE

CITY           SKY/WX    TMP DP  RH WIND       PRES   REMARKS
MARTINSBURG    CLEAR     38   4  24 NW9G21    30.39R
PETERSBURG*    CLEAR     40   7  26 N10       30.42R

$$

VAZ036>039-050-230100-
CENTRAL FOOTHILLS

CITY           SKY/WX    TMP DP  RH WIND       PRES   REMARKS
CHARLOTTESVILL CLEAR     45   8  22 NE12      30.36R
CULPEPER*      CLEAR     43   8  23 N8        30.39R
ORANGE*        CLEAR     41  10  28 N5        30.38R
GORDONSVILLE*  CLEAR     44  11  25 NW3       30.36R
WARRENTON*     CLEAR     41   1  18 N5        30.38R

$$

VAZ055>057-230100-
NORTH AND CENTRAL PIEDMONT

CITY           SKY/WX    TMP DP  RH WIND       PRES   REMARKS
FREDERICKSBRG* CLEAR     45  12  26 N8        30.37R
STAFFORD*      CLEAR     40   7  25 N8        30.42R

$$

NCZ024-NYZ072-PAZ021-071-VAZ022-071-230100-
OTHER REGIONAL OBSERVATIONS

CITY           SKY/WX    TMP DP  RH WIND       PRES   REMARKS
NEW YORK CITY  CLEAR     29  -5  22 NW13G23   30.35R WCI  19
PHILADELPHIA   CLEAR     34   1  24 N15       30.40R WCI  24
PITTSBURGH     PTCLDY    32   6  33 N10       30.46R WCI  24
ROANOKE        CLEAR     46  13  26 NW13      30.33R
RICHMOND       CLEAR     45   9  23 N12       30.34R
RALEIGH        PTCLDY    50  13  22 E9        30.29R

$$

ANZ530>537-230100-
MARINE OBSERVATIONS

STATION/POSITION TIME  TEMP    WIND        PRES
                       AIR SEA DIR/SP/G
                 (UTC) (F)     (DEG/KT/KT) (MB)
THOMAS PT LIGHT  0000   42 44  360/ 18/ 21   N/A
BALT KEY BRIDGE  2348   42     330/ 17/ 19 1028.4R
COVE POINT       2348   43     360/ 20/ 23 1028.4R
LEWISETTA        2348   45 49   20/  8/ 11 1027.5R
PINEY POINT      2348           10/  9/ 11   N/A

$$





USA.gov is the U.S. government's official web portal to all federal, state and local government web resources and services.